owner,sensor,date,latitude,longitude,vertical_datum,wind_speed,wind_to_direction,wind_speed_of_gust,qcFlag 
DISL,ioos:station:DISL:MBLA:1,2014-09-01T00:00:00Z,30.4367,-88.0117,14.2,4.9,166.9,-9999.0,'1111122,1111122,1111122' 
DISL,ioos:station:DISL:MBLA:1,2014-09-01T00:30:00Z,30.4367,-88.0117,14.2,4.94,161.8,-9999.0,'1111122,1111122,1111122' 
DISL,ioos:station:DISL:MBLA:1,2014-09-01T01:00:00Z,30.4367,-88.0117,14.2,4.17,160.8,-9999.0,'1111122,1111122,1111122' 
DISL,ioos:station:DISL:MBLA:1,2014-09-01T01:30:00Z,30.4367,-88.0117,14.2,4.73,168.9,-9999.0,'1111122,1111122,1111122' 
DISL,ioos:station:DISL:MBLA:1,2014-09-01T02:00:00Z,30.4367,-88.0117,14.2,4.77,161.5,-9999.0,'1111122,1111122,1111122' 
DISL,ioos:station:DISL:MBLA:1,2014-09-01T02:30:00Z,30.4367,-88.0117,14.2,4.7,163.3,-9999.0,'1111122,1111122,1111122' 
DISL,ioos:station:DISL:MBLA:1,2014-09-01T03:00:00Z,30.4367,-88.0117,14.2,4.98,169.6,-9999.0,'1111122,1111122,1111122' 
DISL,ioos:station:DISL:MBLA:1,2014-09-01T03:30:00Z,30.4367,-88.0117,14.2,5.13,165.5,-9999.0,'1111122,1111122,1111122' 
DISL,ioos:station:DISL:MBLA:1,2014-09-01T04:00:00Z,30.4367,-88.0117,14.2,5.75,170.8,-9999.0,'1111122,1111122,1111122' 
DISL,ioos:station:DISL:MBLA:1,2014-09-01T04:30:00Z,30.4367,-88.0117,14.2,6.23,164.9,-9999.0,'1111122,1111122,1111122' 
DISL,ioos:station:DISL:MBLA:1,2014-09-01T05:00:00Z,30.4367,-88.0117,14.2,6.63,161.9,-9999.0,'1111122,1111122,1111122' 
DISL,ioos:station:DISL:MBLA:1,2014-09-01T05:30:00Z,30.4367,-88.0117,14.2,5.72,162.1,-9999.0,'1111122,1111122,1111122' 
DISL,ioos:station:DISL:MBLA:1,2014-09-01T06:00:00Z,30.4367,-88.0117,14.2,5.51,162.5,-9999.0,'1111122,1111122,1111122' 
DISL,ioos:station:DISL:MBLA:1,2014-09-01T06:30:00Z,30.4367,-88.0117,14.2,5.99,165.6,-9999.0,'1111122,1111122,1111122' 
DISL,ioos:station:DISL:MBLA:1,2014-09-01T07:00:00Z,30.4367,-88.0117,14.2,5.65,163.5,-9999.0,'1111122,1111122,1111122' 
DISL,ioos:station:DISL:MBLA:1,2014-09-01T07:30:00Z,30.4367,-88.0117,14.2,6.35,164.3,-9999.0,'1111122,1111122,1111122' 
DISL,ioos:station:DISL:MBLA:1,2014-09-01T08:00:00Z,30.4367,-88.0117,14.2,6.46,154.0,-9999.0,'1111122,1111122,1111122' 
DISL,ioos:station:DISL:MBLA:1,2014-09-01T08:30:00Z,30.4367,-88.0117,14.2,6.71,160.1,-9999.0,'1111122,1111122,1111122' 
DISL,ioos:station:DISL:MBLA:1,2014-09-01T09:00:00Z,30.4367,-88.0117,14.2,5.8,154.6,-9999.0,'1111122,1111122,1111122' 
DISL,ioos:station:DISL:MBLA:1,2014-09-01T09:30:00Z,30.4367,-88.0117,14.2,4.51,163.9,-9999.0,'1111122,1111122,1111122' 
DISL,ioos:station:DISL:MBLA:1,2014-09-01T10:00:00Z,30.4367,-88.0117,14.2,4.58,154.5,-9999.0,'1111122,1111122,1111122' 
DISL,ioos:station:DISL:MBLA:1,2014-09-01T10:30:00Z,30.4367,-88.0117,14.2,4.85,146.9,-9999.0,'1111122,1111122,1111122' 
DISL,ioos:station:DISL:MBLA:1,2014-09-01T11:00:00Z,30.4367,-88.0117,14.2,4.01,96.9,-9999.0,'1111122,1111122,1111122' 
DISL,ioos:station:DISL:MBLA:1,2014-09-01T11:30:00Z,30.4367,-88.0117,14.2,3.92,98.1,-9999.0,'1111122,1111122,1111122' 
DISL,ioos:station:DISL:MBLA:1,2014-09-01T12:00:00Z,30.4367,-88.0117,14.2,3.8,101.1,-9999.0,'1111122,1111122,1111122' 
DISL,ioos:station:DISL:MBLA:1,2014-09-01T12:30:00Z,30.4367,-88.0117,14.2,3.87,100.6,-9999.0,'1111122,1111122,1111122' 
DISL,ioos:station:DISL:MBLA:1,2014-09-01T13:00:00Z,30.4367,-88.0117,14.2,4.07,110.4,-9999.0,'1111122,1111122,1111122' 
DISL,ioos:station:DISL:MBLA:1,2014-09-01T13:30:00Z,30.4367,-88.0117,14.2,3.36,117.4,-9999.0,'1111122,1111122,1111122' 
DISL,ioos:station:DISL:MBLA:1,2014-09-01T14:00:00Z,30.4367,-88.0117,14.2,3.43,128.6,-9999.0,'1111122,1111122,1111122' 
DISL,ioos:station:DISL:MBLA:1,2014-09-01T14:30:00Z,30.4367,-88.0117,14.2,5.93,143.4,-9999.0,'1111122,1111122,1111122' 
DISL,ioos:station:DISL:MBLA:1,2014-09-01T15:00:00Z,30.4367,-88.0117,14.2,5.44,142.6,-9999.0,'1111122,1111122,1111122' 
DISL,ioos:station:DISL:MBLA:1,2014-09-01T15:30:00Z,30.4367,-88.0117,14.2,6.04,133.0,-9999.0,'1111122,1111122,1111122' 
DISL,ioos:station:DISL:MBLA:1,2014-09-01T16:00:00Z,30.4367,-88.0117,14.2,6.57,135.0,-9999.0,'1111122,1111122,1111122' 
DISL,ioos:station:DISL:MBLA:1,2014-09-01T16:30:00Z,30.4367,-88.0117,14.2,6.26,141.8,-9999.0,'1111122,1111122,1111122' 
DISL,ioos:station:DISL:MBLA:1,2014-09-01T17:00:00Z,30.4367,-88.0117,14.2,6.63,136.6,-9999.0,'1111122,1111122,1111122' 
DISL,ioos:station:DISL:MBLA:1,2014-09-01T17:30:00Z,30.4367,-88.0117,14.2,6.74,148.6,-9999.0,'1111122,1111122,1111122' 
DISL,ioos:station:DISL:MBLA:1,2014-09-01T18:00:00Z,30.4367,-88.0117,14.2,5.93,152.3,-9999.0,'1111122,1111122,1111122' 
DISL,ioos:station:DISL:MBLA:1,2014-09-01T18:30:00Z,30.4367,-88.0117,14.2,7.13,153.4,-9999.0,'1111122,1111122,1111122' 
DISL,ioos:station:DISL:MBLA:1,2014-09-01T19:00:00Z,30.4367,-88.0117,14.2,6.85,152.2,-9999.0,'1111122,1111122,1111122' 
DISL,ioos:station:DISL:MBLA:1,2014-09-01T19:30:00Z,30.4367,-88.0117,14.2,6.7,148.0,-9999.0,'1111122,1111122,1111122' 
DISL,ioos:station:DISL:MBLA:1,2014-09-01T20:00:00Z,30.4367,-88.0117,14.2,7.2,149.2,-9999.0,'1111122,1111122,1111122' 
DISL,ioos:station:DISL:MBLA:1,2014-09-01T20:30:00Z,30.4367,-88.0117,14.2,8.09,181.1,-9999.0,'1111122,1111122,1111122' 
DISL,ioos:station:DISL:MBLA:1,2014-09-01T21:00:00Z,30.4367,-88.0117,14.2,6.57,155.5,-9999.0,'1111122,1111122,1111122' 
DISL,ioos:station:DISL:MBLA:1,2014-09-01T21:30:00Z,30.4367,-88.0117,14.2,7.9,152.2,-9999.0,'1111122,1111122,1111122' 
DISL,ioos:station:DISL:MBLA:1,2014-09-01T22:00:00Z,30.4367,-88.0117,14.2,7.62,152.1,-9999.0,'1111122,1111122,1111122' 
DISL,ioos:station:DISL:MBLA:1,2014-09-01T22:30:00Z,30.4367,-88.0117,14.2,7.59,161.5,-9999.0,'1111122,1111122,1111122' 
DISL,ioos:station:DISL:MBLA:1,2014-09-01T23:00:00Z,30.4367,-88.0117,14.2,8.01,156.8,-9999.0,'1111122,1111122,1111122' 
DISL,ioos:station:DISL:MBLA:1,2014-09-01T23:30:00Z,30.4367,-88.0117,14.2,7.74,153.1,-9999.0,'1111122,1111122,1111122' 
DISL,ioos:station:DISL:MBLA:1,2014-09-02T00:00:00Z,30.4367,-88.0117,14.2,6.61,168.6,-9999.0,'1111122,1111122,1111122' 
DISL,ioos:station:DISL:MBLA:1,2014-09-02T00:30:00Z,30.4367,-88.0117,14.2,6.8,153.6,-9999.0,'1111122,1111122,1111122' 
DISL,ioos:station:DISL:MBLA:1,2014-09-02T01:00:00Z,30.4367,-88.0117,14.2,6.36,160.7,-9999.0,'1111122,1111122,1111122' 
DISL,ioos:station:DISL:MBLA:1,2014-09-02T01:30:00Z,30.4367,-88.0117,14.2,6.76,158.8,-9999.0,'1111122,1111122,1111122' 
DISL,ioos:station:DISL:MBLA:1,2014-09-02T02:00:00Z,30.4367,-88.0117,14.2,6.65,157.5,-9999.0,'1111122,1111122,1111122' 
DISL,ioos:station:DISL:MBLA:1,2014-09-02T02:30:00Z,30.4367,-88.0117,14.2,7.28,161.7,-9999.0,'1111122,1111122,1111122' 
DISL,ioos:station:DISL:MBLA:1,2014-09-02T03:00:00Z,30.4367,-88.0117,14.2,6.27,169.3,-9999.0,'1111122,1111122,1111122' 
DISL,ioos:station:DISL:MBLA:1,2014-09-02T03:30:00Z,30.4367,-88.0117,14.2,5.76,174.2,-9999.0,'1111122,1111122,1111122' 
DISL,ioos:station:DISL:MBLA:1,2014-09-02T04:00:00Z,30.4367,-88.0117,14.2,5.66,168.9,-9999.0,'1111122,1111122,1111122' 
DISL,ioos:station:DISL:MBLA:1,2014-09-02T04:30:00Z,30.4367,-88.0117,14.2,6.33,162.8,-9999.0,'1111122,1111122,1111122' 
DISL,ioos:station:DISL:MBLA:1,2014-09-02T05:00:00Z,30.4367,-88.0117,14.2,5.96,159.4,-9999.0,'1111122,1111122,1111122' 
DISL,ioos:station:DISL:MBLA:1,2014-09-02T05:30:00Z,30.4367,-88.0117,14.2,6.34,159.4,-9999.0,'1111122,1111122,1111122' 
DISL,ioos:station:DISL:MBLA:1,2014-09-02T06:00:00Z,30.4367,-88.0117,14.2,7.76,157.5,-9999.0,'1111122,1111122,1111122' 
DISL,ioos:station:DISL:MBLA:1,2014-09-02T06:30:00Z,30.4367,-88.0117,14.2,7.59,160.0,-9999.0,'1111122,1111122,1111122' 
DISL,ioos:station:DISL:MBLA:1,2014-09-02T07:00:00Z,30.4367,-88.0117,14.2,7.36,166.9,-9999.0,'1111122,1111122,1111122' 
DISL,ioos:station:DISL:MBLA:1,2014-09-02T07:30:00Z,30.4367,-88.0117,14.2,6.83,170.8,-9999.0,'1111122,1111122,1111122' 
DISL,ioos:station:DISL:MBLA:1,2014-09-02T08:00:00Z,30.4367,-88.0117,14.2,7.06,174.3,-9999.0,'1111122,1111122,1111122' 
DISL,ioos:station:DISL:MBLA:1,2014-09-02T08:30:00Z,30.4367,-88.0117,14.2,5.98,184.8,-9999.0,'1111122,1111122,1111122' 
DISL,ioos:station:DISL:MBLA:1,2014-09-02T09:00:00Z,30.4367,-88.0117,14.2,4.67,195.5,-9999.0,'1111122,1111122,1111122' 
DISL,ioos:station:DISL:MBLA:1,2014-09-02T09:30:00Z,30.4367,-88.0117,14.2,3.86,201.6,-9999.0,'1111122,1111122,1111122' 
DISL,ioos:station:DISL:MBLA:1,2014-09-02T10:00:00Z,30.4367,-88.0117,14.2,4.45,221.4,-9999.0,'1111122,1111122,1111122' 
DISL,ioos:station:DISL:MBLA:1,2014-09-02T10:30:00Z,30.4367,-88.0117,14.2,4.45,199.1,-9999.0,'1111122,1111122,1111122' 
DISL,ioos:station:DISL:MBLA:1,2014-09-02T11:00:00Z,30.4367,-88.0117,14.2,4.25,202.6,-9999.0,'1111122,1111122,1111122' 
DISL,ioos:station:DISL:MBLA:1,2014-09-02T11:30:00Z,30.4367,-88.0117,14.2,3.61,213.1,-9999.0,'1111122,1111122,1111122' 
DISL,ioos:station:DISL:MBLA:1,2014-09-02T12:00:00Z,30.4367,-88.0117,14.2,3.45,212.3,-9999.0,'1111122,1111122,1111122' 
DISL,ioos:station:DISL:MBLA:1,2014-09-02T12:30:00Z,30.4367,-88.0117,14.2,3.49,232.5,-9999.0,'1111122,1111122,1111122' 
DISL,ioos:station:DISL:MBLA:1,2014-09-02T13:00:00Z,30.4367,-88.0117,14.2,2.91,251.7,-9999.0,'1111122,1111122,1111122' 
DISL,ioos:station:DISL:MBLA:1,2014-09-02T13:30:00Z,30.4367,-88.0117,14.2,1.93,279.4,-9999.0,'1111122,1111122,1111122' 
DISL,ioos:station:DISL:MBLA:1,2014-09-02T14:00:00Z,30.4367,-88.0117,14.2,0.77,291.4,-9999.0,'1111122,1111122,1111122' 
DISL,ioos:station:DISL:MBLA:1,2014-09-02T14:30:00Z,30.4367,-88.0117,14.2,0.85,195.1,-9999.0,'1111122,1111122,1111122' 
DISL,ioos:station:DISL:MBLA:1,2014-09-02T15:00:00Z,30.4367,-88.0117,14.2,2.32,149.8,-9999.0,'1111122,1111122,1111122' 
DISL,ioos:station:DISL:MBLA:1,2014-09-02T15:30:00Z,30.4367,-88.0117,14.2,2.01,182.0,-9999.0,'1111122,1111122,1111122' 
DISL,ioos:station:DISL:MBLA:1,2014-09-02T16:00:00Z,30.4367,-88.0117,14.2,1.97,181.1,-9999.0,'1111122,1111122,1111122' 
DISL,ioos:station:DISL:MBLA:1,2014-09-02T16:30:00Z,30.4367,-88.0117,14.2,2.46,168.6,-9999.0,'1111122,1111122,1111122' 
DISL,ioos:station:DISL:MBLA:1,2014-09-02T17:00:00Z,30.4367,-88.0117,14.2,3.3,170.6,-9999.0,'1111122,1111122,1111122' 
DISL,ioos:station:DISL:MBLA:1,2014-09-02T17:30:00Z,30.4367,-88.0117,14.2,3.8,173.5,-9999.0,'1111122,1111122,1111122' 
DISL,ioos:station:DISL:MBLA:1,2014-09-02T18:00:00Z,30.4367,-88.0117,14.2,4.61,167.6,-9999.0,'1111122,1111122,1111122' 
DISL,ioos:station:DISL:MBLA:1,2014-09-02T18:30:00Z,30.4367,-88.0117,14.2,6.06,183.1,-9999.0,'1111122,1111122,1111122' 
DISL,ioos:station:DISL:MBLA:1,2014-09-02T19:00:00Z,30.4367,-88.0117,14.2,6.61,176.0,-9999.0,'1111122,1111122,1111122' 
DISL,ioos:station:DISL:MBLA:1,2014-09-02T19:30:00Z,30.4367,-88.0117,14.2,5.29,181.4,-9999.0,'1111122,1111122,1111122' 
DISL,ioos:station:DISL:MBLA:1,2014-09-02T20:00:00Z,30.4367,-88.0117,14.2,5.47,184.4,-9999.0,'1111122,1111122,1111122' 
DISL,ioos:station:DISL:MBLA:1,2014-09-02T20:30:00Z,30.4367,-88.0117,14.2,5.13,182.5,-9999.0,'1111122,1111122,1111122' 
DISL,ioos:station:DISL:MBLA:1,2014-09-02T21:00:00Z,30.4367,-88.0117,14.2,4.89,189.0,-9999.0,'1111122,1111122,1111122' 
DISL,ioos:station:DISL:MBLA:1,2014-09-02T21:30:00Z,30.4367,-88.0117,14.2,4.46,198.9,-9999.0,'1111122,1111122,1111122' 
DISL,ioos:station:DISL:MBLA:1,2014-09-02T22:00:00Z,30.4367,-88.0117,14.2,4.84,199.6,-9999.0,'1111122,1111122,1111122' 
DISL,ioos:station:DISL:MBLA:1,2014-09-02T22:30:00Z,30.4367,-88.0117,14.2,3.33,191.0,-9999.0,'1111122,1111122,1111122' 
DISL,ioos:station:DISL:MBLA:1,2014-09-02T23:00:00Z,30.4367,-88.0117,14.2,4.06,194.6,-9999.0,'1111122,1111122,1111122' 
DISL,ioos:station:DISL:MBLA:1,2014-09-02T23:30:00Z,30.4367,-88.0117,14.2,4.91,185.6,-9999.0,'1111122,1111122,1111122' 
DISL,ioos:station:DISL:MBLA:1,2014-09-03T00:00:00Z,30.4367,-88.0117,14.2,4.93,197.2,-9999.0,'1111122,1111122,1111122' 
DISL,ioos:station:DISL:MBLA:1,2014-09-03T00:30:00Z,30.4367,-88.0117,14.2,3.99,211.9,-9999.0,'1111122,1111122,1111122' 
DISL,ioos:station:DISL:MBLA:1,2014-09-03T01:00:00Z,30.4367,-88.0117,14.2,4.32,228.3,-9999.0,'1111122,1111122,1111122' 
DISL,ioos:station:DISL:MBLA:1,2014-09-03T01:30:00Z,30.4367,-88.0117,14.2,3.43,238.9,-9999.0,'1111122,1111122,1111122' 
DISL,ioos:station:DISL:MBLA:1,2014-09-03T02:00:00Z,30.4367,-88.0117,14.2,5.08,230.1,-9999.0,'1111122,1111122,1111122' 
DISL,ioos:station:DISL:MBLA:1,2014-09-03T02:30:00Z,30.4367,-88.0117,14.2,4.47,207.5,-9999.0,'1111122,1111122,1111122' 
DISL,ioos:station:DISL:MBLA:1,2014-09-03T03:00:00Z,30.4367,-88.0117,14.2,3.02,220.8,-9999.0,'1111122,1111122,1111122' 
DISL,ioos:station:DISL:MBLA:1,2014-09-03T03:30:00Z,30.4367,-88.0117,14.2,3.55,285.0,-9999.0,'1111122,1111122,1111122' 
DISL,ioos:station:DISL:MBLA:1,2014-09-03T04:00:00Z,30.4367,-88.0117,14.2,4.85,279.5,-9999.0,'1111122,1111122,1111122' 
DISL,ioos:station:DISL:MBLA:1,2014-09-03T04:30:00Z,30.4367,-88.0117,14.2,6.26,287.5,-9999.0,'1111122,1111122,1111122' 
DISL,ioos:station:DISL:MBLA:1,2014-09-03T05:00:00Z,30.4367,-88.0117,14.2,9.11,306.6,-9999.0,'1111122,1111122,1111122' 
DISL,ioos:station:DISL:MBLA:1,2014-09-03T05:30:00Z,30.4367,-88.0117,14.2,5.19,316.4,-9999.0,'1111122,1111122,1111122' 
DISL,ioos:station:DISL:MBLA:1,2014-09-03T06:00:00Z,30.4367,-88.0117,14.2,3.3,288.8,-9999.0,'1111122,1111122,1111122' 
DISL,ioos:station:DISL:MBLA:1,2014-09-03T06:30:00Z,30.4367,-88.0117,14.2,4.3,305.1,-9999.0,'1111122,1111122,1111122' 
DISL,ioos:station:DISL:MBLA:1,2014-09-03T07:00:00Z,30.4367,-88.0117,14.2,4.2,334.8,-9999.0,'1111122,1111122,1111122' 
DISL,ioos:station:DISL:MBLA:1,2014-09-03T07:30:00Z,30.4367,-88.0117,14.2,2.66,347.6,-9999.0,'1111122,1111122,1111122' 
DISL,ioos:station:DISL:MBLA:1,2014-09-03T08:00:00Z,30.4367,-88.0117,14.2,2.59,14.65,-9999.0,'1111122,1111122,1111122' 
DISL,ioos:station:DISL:MBLA:1,2014-09-03T08:30:00Z,30.4367,-88.0117,14.2,5.02,42.52,-9999.0,'1111122,1111122,1111122' 
DISL,ioos:station:DISL:MBLA:1,2014-09-03T09:00:00Z,30.4367,-88.0117,14.2,5.79,56.44,-9999.0,'1111122,1111122,1111122' 
DISL,ioos:station:DISL:MBLA:1,2014-09-03T09:30:00Z,30.4367,-88.0117,14.2,7.08,37.88,-9999.0,'1111122,1111122,1111122' 
DISL,ioos:station:DISL:MBLA:1,2014-09-03T10:00:00Z,30.4367,-88.0117,14.2,5.96,30.29,-9999.0,'1111122,1111122,1111122' 
DISL,ioos:station:DISL:MBLA:1,2014-09-03T10:30:00Z,30.4367,-88.0117,14.2,4.83,16.42,-9999.0,'1111122,1111122,1111122' 
DISL,ioos:station:DISL:MBLA:1,2014-09-03T11:00:00Z,30.4367,-88.0117,14.2,4.85,354.1,-9999.0,'1111122,1111122,1111122' 
DISL,ioos:station:DISL:MBLA:1,2014-09-03T11:30:00Z,30.4367,-88.0117,14.2,4.92,345.2,-9999.0,'1111122,1111122,1111122' 
DISL,ioos:station:DISL:MBLA:1,2014-09-03T12:00:00Z,30.4367,-88.0117,14.2,7.09,342.0,-9999.0,'1111122,1111122,1111122' 
DISL,ioos:station:DISL:MBLA:1,2014-09-03T12:30:00Z,30.4367,-88.0117,14.2,6.28,353.2,-9999.0,'1111122,1111122,1111122' 
DISL,ioos:station:DISL:MBLA:1,2014-09-03T13:00:00Z,30.4367,-88.0117,14.2,7.03,2.768,-9999.0,'1111122,1111122,1111122' 
DISL,ioos:station:DISL:MBLA:1,2014-09-03T13:30:00Z,30.4367,-88.0117,14.2,6.65,2.854,-9999.0,'1111122,1111122,1111122' 
DISL,ioos:station:DISL:MBLA:1,2014-09-03T14:00:00Z,30.4367,-88.0117,14.2,6.47,7.993,-9999.0,'1111122,1111122,1111122' 
DISL,ioos:station:DISL:MBLA:1,2014-09-03T14:30:00Z,30.4367,-88.0117,14.2,5.99,10.96,-9999.0,'1111122,1111122,1111122' 
DISL,ioos:station:DISL:MBLA:1,2014-09-03T15:00:00Z,30.4367,-88.0117,14.2,5.35,16.58,-9999.0,'1111122,1111122,1111122' 
DISL,ioos:station:DISL:MBLA:1,2014-09-03T15:30:00Z,30.4367,-88.0117,14.2,5.09,5.815,-9999.0,'1111122,1111122,1111122' 
DISL,ioos:station:DISL:MBLA:1,2014-09-03T16:00:00Z,30.4367,-88.0117,14.2,5.43,6.077,-9999.0,'1111122,1111122,1111122' 
DISL,ioos:station:DISL:MBLA:1,2014-09-03T16:30:00Z,30.4367,-88.0117,14.2,4.02,348.2,-9999.0,'1111122,1111122,1111122' 
DISL,ioos:station:DISL:MBLA:1,2014-09-03T17:00:00Z,30.4367,-88.0117,14.2,5.09,347.3,-9999.0,'1111122,1111122,1111122' 
DISL,ioos:station:DISL:MBLA:1,2014-09-03T17:30:00Z,30.4367,-88.0117,14.2,4.69,350.4,-9999.0,'1111122,1111122,1111122' 
DISL,ioos:station:DISL:MBLA:1,2014-09-03T18:00:00Z,30.4367,-88.0117,14.2,4.72,355.8,-9999.0,'1111122,1111122,1111122' 
DISL,ioos:station:DISL:MBLA:1,2014-09-03T18:30:00Z,30.4367,-88.0117,14.2,3.82,349.0,-9999.0,'1111122,1111122,1111122' 
DISL,ioos:station:DISL:MBLA:1,2014-09-03T19:00:00Z,30.4367,-88.0117,14.2,3.31,343.6,-9999.0,'1111122,1111122,1111122' 
DISL,ioos:station:DISL:MBLA:1,2014-09-03T19:30:00Z,30.4367,-88.0117,14.2,4.55,320.8,-9999.0,'1111122,1111122,1111122' 
DISL,ioos:station:DISL:MBLA:1,2014-09-03T20:00:00Z,30.4367,-88.0117,14.2,3.06,309.3,-9999.0,'1111122,1111122,1111122' 
DISL,ioos:station:DISL:MBLA:1,2014-09-03T20:30:00Z,30.4367,-88.0117,14.2,2.28,297.0,-9999.0,'1111122,1111122,1111122' 
DISL,ioos:station:DISL:MBLA:1,2014-09-03T21:00:00Z,30.4367,-88.0117,14.2,1.91,163.1,-9999.0,'1111122,1111122,1111122' 
DISL,ioos:station:DISL:MBLA:1,2014-09-03T21:30:00Z,30.4367,-88.0117,14.2,3.11,168.8,-9999.0,'1111122,1111122,1111122' 
DISL,ioos:station:DISL:MBLA:1,2014-09-03T22:00:00Z,30.4367,-88.0117,14.2,4.03,197.4,-9999.0,'1111122,1111122,1111122' 
DISL,ioos:station:DISL:MBLA:1,2014-09-03T22:30:00Z,30.4367,-88.0117,14.2,4.59,194.8,-9999.0,'1111122,1111122,1111122' 
DISL,ioos:station:DISL:MBLA:1,2014-09-03T23:00:00Z,30.4367,-88.0117,14.2,4.41,198.1,-9999.0,'1111122,1111122,1111122' 
DISL,ioos:station:DISL:MBLA:1,2014-09-03T23:30:00Z,30.4367,-88.0117,14.2,5.02,216.5,-9999.0,'1111122,1111122,1111122' 
DISL,ioos:station:DISL:MBLA:1,2014-09-04T00:00:00Z,30.4367,-88.0117,14.2,4.95,223.8,-9999.0,'1111122,1111122,1111122' 
DISL,ioos:station:DISL:MBLA:1,2014-09-04T00:30:00Z,30.4367,-88.0117,14.2,3.47,184.5,-9999.0,'1111122,1111122,1111122' 
DISL,ioos:station:DISL:MBLA:1,2014-09-04T01:00:00Z,30.4367,-88.0117,14.2,3.94,213.9,-9999.0,'1111122,1111122,1111122' 
DISL,ioos:station:DISL:MBLA:1,2014-09-04T01:30:00Z,30.4367,-88.0117,14.2,3.71,230.1,-9999.0,'1111122,1111122,1111122' 
DISL,ioos:station:DISL:MBLA:1,2014-09-04T02:00:00Z,30.4367,-88.0117,14.2,2.43,223.8,-9999.0,'1111122,1111122,1111122' 
DISL,ioos:station:DISL:MBLA:1,2014-09-04T02:30:00Z,30.4367,-88.0117,14.2,1.33,251.2,-9999.0,'1111122,1111122,1111122' 
DISL,ioos:station:DISL:MBLA:1,2014-09-04T03:00:00Z,30.4367,-88.0117,14.2,1.45,235.7,-9999.0,'1111122,1111122,1111122' 
DISL,ioos:station:DISL:MBLA:1,2014-09-04T03:30:00Z,30.4367,-88.0117,14.2,2.56,256.6,-9999.0,'1111122,1111122,1111122' 
DISL,ioos:station:DISL:MBLA:1,2014-09-04T04:00:00Z,30.4367,-88.0117,14.2,2.49,282.1,-9999.0,'1111122,1111122,1111122' 
DISL,ioos:station:DISL:MBLA:1,2014-09-04T04:30:00Z,30.4367,-88.0117,14.2,1.67,308.6,-9999.0,'1111122,1111122,1111122' 
DISL,ioos:station:DISL:MBLA:1,2014-09-04T05:00:00Z,30.4367,-88.0117,14.2,2.37,323.5,-9999.0,'1111122,1111122,1111122' 
DISL,ioos:station:DISL:MBLA:1,2014-09-04T05:30:00Z,30.4367,-88.0117,14.2,2.75,321.9,-9999.0,'1111122,1111122,1111122' 
DISL,ioos:station:DISL:MBLA:1,2014-09-04T06:00:00Z,30.4367,-88.0117,14.2,1.12,327.6,-9999.0,'1111122,1111122,1111122' 
DISL,ioos:station:DISL:MBLA:1,2014-09-04T06:30:00Z,30.4367,-88.0117,14.2,0.11,16.95,-9999.0,'1111122,1111122,1111122' 
DISL,ioos:station:DISL:MBLA:1,2014-09-04T07:00:00Z,30.4367,-88.0117,14.2,2.27,114.1,-9999.0,'1111122,1111122,1111122' 
DISL,ioos:station:DISL:MBLA:1,2014-09-04T07:30:00Z,30.4367,-88.0117,14.2,1.82,127.6,-9999.0,'1111122,1111122,1111122' 
DISL,ioos:station:DISL:MBLA:1,2014-09-04T08:00:00Z,30.4367,-88.0117,14.2,0.7,81.1,-9999.0,'1111122,1111122,1111122' 
DISL,ioos:station:DISL:MBLA:1,2014-09-04T08:30:00Z,30.4367,-88.0117,14.2,1.68,57.96,-9999.0,'1111122,1111122,1111122' 
DISL,ioos:station:DISL:MBLA:1,2014-09-04T09:00:00Z,30.4367,-88.0117,14.2,1.89,7.392,-9999.0,'1111122,1111122,1111122' 
DISL,ioos:station:DISL:MBLA:1,2014-09-04T09:30:00Z,30.4367,-88.0117,14.2,1.96,344.5,-9999.0,'1111122,1111122,1111122' 
DISL,ioos:station:DISL:MBLA:1,2014-09-04T10:00:00Z,30.4367,-88.0117,14.2,2.5,316.7,-9999.0,'1111122,1111122,1111122' 
DISL,ioos:station:DISL:MBLA:1,2014-09-04T10:30:00Z,30.4367,-88.0117,14.2,1.91,328.4,-9999.0,'1111122,1111122,1111122' 
DISL,ioos:station:DISL:MBLA:1,2014-09-04T11:00:00Z,30.4367,-88.0117,14.2,2.61,335.2,-9999.0,'1111122,1111122,1111122' 
DISL,ioos:station:DISL:MBLA:1,2014-09-04T11:30:00Z,30.4367,-88.0117,14.2,2.21,2.021,-9999.0,'1111122,1111122,1111122' 
DISL,ioos:station:DISL:MBLA:1,2014-09-04T12:00:00Z,30.4367,-88.0117,14.2,1.86,44.43,-9999.0,'1111122,1111122,1111122' 
DISL,ioos:station:DISL:MBLA:1,2014-09-04T12:30:00Z,30.4367,-88.0117,14.2,0.94,49.86,-9999.0,'1111122,1111122,1111122' 
DISL,ioos:station:DISL:MBLA:1,2014-09-04T13:00:00Z,30.4367,-88.0117,14.2,2.76,77.79,-9999.0,'1111122,1111122,1111122' 
DISL,ioos:station:DISL:MBLA:1,2014-09-04T13:30:00Z,30.4367,-88.0117,14.2,2.61,88.6,-9999.0,'1111122,1111122,1111122' 
DISL,ioos:station:DISL:MBLA:1,2014-09-04T14:00:00Z,30.4367,-88.0117,14.2,3.41,107.1,-9999.0,'1111122,1111122,1111122' 
DISL,ioos:station:DISL:MBLA:1,2014-09-04T14:30:00Z,30.4367,-88.0117,14.2,3.13,103.8,-9999.0,'1111122,1111122,1111122' 
DISL,ioos:station:DISL:MBLA:1,2014-09-04T15:00:00Z,30.4367,-88.0117,14.2,2.71,113.4,-9999.0,'1111122,1111122,1111122' 
DISL,ioos:station:DISL:MBLA:1,2014-09-04T15:30:00Z,30.4367,-88.0117,14.2,2.61,112.5,-9999.0,'1111122,1111122,1111122' 
DISL,ioos:station:DISL:MBLA:1,2014-09-04T16:00:00Z,30.4367,-88.0117,14.2,1.65,120.9,-9999.0,'1111122,1111122,1111122' 
DISL,ioos:station:DISL:MBLA:1,2014-09-04T16:30:00Z,30.4367,-88.0117,14.2,2.56,135.1,-9999.0,'1111122,1111122,1111122' 
DISL,ioos:station:DISL:MBLA:1,2014-09-04T17:00:00Z,30.4367,-88.0117,14.2,2.49,160.8,-9999.0,'1111122,1111122,1111122' 
DISL,ioos:station:DISL:MBLA:1,2014-09-04T17:30:00Z,30.4367,-88.0117,14.2,2.63,144.0,-9999.0,'1111122,1111122,1111122' 
DISL,ioos:station:DISL:MBLA:1,2014-09-04T18:00:00Z,30.4367,-88.0117,14.2,3.3,163.2,-9999.0,'1111122,1111122,1111122' 
DISL,ioos:station:DISL:MBLA:1,2014-09-04T18:30:00Z,30.4367,-88.0117,14.2,4.3,156.2,-9999.0,'1111122,1111122,1111122' 
DISL,ioos:station:DISL:MBLA:1,2014-09-04T19:00:00Z,30.4367,-88.0117,14.2,5.14,158.6,-9999.0,'1111122,1111122,1111122' 
DISL,ioos:station:DISL:MBLA:1,2014-09-04T19:30:00Z,30.4367,-88.0117,14.2,4.76,156.0,-9999.0,'1111122,1111122,1111122' 
DISL,ioos:station:DISL:MBLA:1,2014-09-04T20:00:00Z,30.4367,-88.0117,14.2,3.36,156.9,-9999.0,'1111122,1111122,1111122' 
DISL,ioos:station:DISL:MBLA:1,2014-09-04T20:30:00Z,30.4367,-88.0117,14.2,3.05,164.2,-9999.0,'1111122,1111122,1111122' 
DISL,ioos:station:DISL:MBLA:1,2014-09-04T21:00:00Z,30.4367,-88.0117,14.2,2.63,325.3,-9999.0,'1111122,1111122,1111122' 
DISL,ioos:station:DISL:MBLA:1,2014-09-04T21:30:00Z,30.4367,-88.0117,14.2,4.4,338.3,-9999.0,'1111122,1111122,1111122' 
DISL,ioos:station:DISL:MBLA:1,2014-09-04T22:00:00Z,30.4367,-88.0117,14.2,1.46,7.926,-9999.0,'1111122,1111122,1111122' 
DISL,ioos:station:DISL:MBLA:1,2014-09-04T22:30:00Z,30.4367,-88.0117,14.2,5.61,99.4,-9999.0,'1111122,1111122,1111122' 
DISL,ioos:station:DISL:MBLA:1,2014-09-04T23:00:00Z,30.4367,-88.0117,14.2,4.13,98.8,-9999.0,'1111122,1111122,1111122' 
DISL,ioos:station:DISL:MBLA:1,2014-09-04T23:30:00Z,30.4367,-88.0117,14.2,2.84,182.3,-9999.0,'1111122,1111122,1111122' 
DISL,ioos:station:DISL:MBLA:1,2014-09-05T00:00:00Z,30.4367,-88.0117,14.2,2.96,161.7,-9999.0,'1111122,1111122,1111122' 
DISL,ioos:station:DISL:MBLA:1,2014-09-05T00:30:00Z,30.4367,-88.0117,14.2,3.92,106.7,-9999.0,'1111122,1111122,1111122' 
DISL,ioos:station:DISL:MBLA:1,2014-09-05T01:00:00Z,30.4367,-88.0117,14.2,3.03,117.4,-9999.0,'1111122,1111122,1111122' 
DISL,ioos:station:DISL:MBLA:1,2014-09-05T01:30:00Z,30.4367,-88.0117,14.2,3.51,87.8,-9999.0,'1111122,1111122,1111122' 
DISL,ioos:station:DISL:MBLA:1,2014-09-05T02:00:00Z,30.4367,-88.0117,14.2,4.27,79.93,-9999.0,'1111122,1111122,1111122' 
DISL,ioos:station:DISL:MBLA:1,2014-09-05T02:30:00Z,30.4367,-88.0117,14.2,4.17,94.1,-9999.0,'1111122,1111122,1111122' 
DISL,ioos:station:DISL:MBLA:1,2014-09-05T03:00:00Z,30.4367,-88.0117,14.2,3.94,90.3,-9999.0,'1111122,1111122,1111122' 
DISL,ioos:station:DISL:MBLA:1,2014-09-05T03:30:00Z,30.4367,-88.0117,14.2,3.47,95.1,-9999.0,'1111122,1111122,1111122' 
DISL,ioos:station:DISL:MBLA:1,2014-09-05T04:00:00Z,30.4367,-88.0117,14.2,3.4,99.3,-9999.0,'1111122,1111122,1111122' 